Meteo Giornale » Osservazioni meteo Stati Uniti (USA) » Mosinee-Central Wisconsin
ore: 19:55 - Osservazioni Meteo Mosinee-Central Wisconsin
Lat. 44° 47' N Lon. 89° 40' W Alt. 389 metri s.l.m.
25 °C
Molto Nuvoloso
Temp. 24 Ore
19 °C
30 °C
Nord
5.5 Km/h
Dew point 23 °C
Umidità 88 %
Visibilità 10 Km
Il sole sorge alle ore 06:20
Il sole tramonta alle ore 19:37
| Data e Ora | Cielo e Fenomeni | T °C | DP °C | Um. % | Pres. hPa | Vis. km | Vento km/h | |
|---|---|---|---|---|---|---|---|---|
| Oggi h: 19:55 | Molto Nuvoloso | 25 | 23 | 88 | 1012 | 10 | N 5.5 | |
| Oggi h: 18:50 | Poco Nuvoloso | 28 | 24 | 78 | 1011 | 10 | O/SO 9.3 | |
| Oggi h: 17:50 | Coperto | 30 | 24 | 70 | 1011 | 10 | O 9.3 | |
| Oggi h: 16:50 | Coperto | 29 | 24 | 74 | 1011 | 10 | N 0 | |
| Oggi h: 15:50 | Coperto | 28 | 24 | 78 | 1011 | 10 | O 7.4 | |
| Oggi h: 14:50 | Sereno | 29 | 24 | 74 | 1011 | 10 | S/SO 13 | |
| Oggi h: 13:50 | Nuvoloso | 28 | 23 | 74 | 1011 | 10 | S/SO 9.3 | |
| Oggi h: 12:50 | Sereno | 28 | 23 | 74 | 1011 | 10 | S/SO 9.3 | |
| Oggi h: 11:50 | Sereno | 27 | 22 | 74 | 1011 | 10 | S 7.4 | |
| Oggi h: 10:50 | Poco Nuvoloso | 26 | 22 | 78 | 1011 | 10 | N 5.5 | |
| Oggi h: 09:50 | Poco Nuvoloso | 24 | 21 | 83 | 1011 | 10 | S 7.4 | |
| Oggi h: 08:50 | Foschia | 22 | 20 | 88 | 1011 | 11 | E 9.3 | |
| Oggi h: 07:50 | Foschia | 20 | 20 | 100 | 1011 | 5 | E/SE 9.3 | |
| Oggi h: 06:50 | Foschia | 20 | 19 | 93 | 1011 | 5 | E/SE 13 | |
| Oggi h: 06:33 | Foschia | 19 | 19 | 100 | 1010 | 2 | E 11.1 | |
| Oggi h: 05:50 | Foschia | 20 | 19 | 93 | 1011 | 11 | E/SE 11.1 | |
| Oggi h: 05:35 | Temporale nelle vicinanze Foschia | 20 | 19 | 93 | 1011 | 10 | E/SE 9.3 | |
| Oggi h: 05:15 | Temporale nelle vicinanze | 20 | 19 | 93 | 1011 | 11 | E 9.3 | |
| Oggi h: 04:55 | Temporale nelle vicinanze | 20 | 19 | 93 | 1011 | 13 | SE 9.3 | |
| Oggi h: 04:35 | Poco Nuvoloso | 20 | 19 | 93 | 1011 | 14 | SE 11.1 | |
| Oggi h: 04:15 | Poco Nuvoloso | 20 | 19 | 93 | 1011 | 10 | SE 9.3 | |
| Oggi h: 03:55 | Nuvoloso | 20 | 19 | 93 | 1011 | 14 | E/SE 9.3 | |
| Oggi h: 03:35 | Molto Nuvoloso | 20 | 19 | 93 | 1011 | 14 | E/SE 9.3 | |
| Oggi h: 03:15 | Molto Nuvoloso | 20 | 20 | 100 | 1011 | 13 | E/SE 9.3 | |
| Oggi h: 02:55 | Coperto | 20 | 20 | 100 | 1011 | 13 | E/SE 13 | |
| Oggi h: 02:35 | Coperto | 20 | 20 | 100 | 1011 | 11 | E 11.1 | |
| Oggi h: 02:15 | Coperto | 20 | 20 | 100 | 1011 | 11 | E 14.8 | |
| Oggi h: 01:55 | Coperto | 20 | 20 | 100 | 1012 | 11 | E 14.8 | |
| Oggi h: 01:35 | Coperto | 21 | 20 | 94 | 1012 | 13 | E 11.1 | |
| Oggi h: 01:15 | Pioggia | 20 | 20 | 100 | 1012 | 11 | E/SE 9.3 | |
| Oggi h: 00:55 | Coperto | 20 | 20 | 100 | 1012 | 11 | E/SE 14.8 | |
| Oggi h: 00:35 | Foschia | 20 | 20 | 100 | 1013 | 10 | E/SE 13 | |
| Oggi h: 00:15 | Foschia | 20 | 20 | 100 | 1013 | 10 | E 9.3 | |
| Ieri h: 23:55 | Temporale nelle vicinanze Foschia | 21 | 20 | 94 | 1014 | 10 | E/SE 9.3 | |
| Ieri h: 23:35 | Nuvoloso | 20 | 20 | 100 | 1014 | 11 | E/SE 9.3 | |
| Ieri h: 23:15 | Coperto | 21 | 20 | 94 | 1014 | 14 | E/SE 9.3 | |
| Ieri h: 22:55 | Coperto | 21 | 20 | 94 | 1014 | 14 | SE 9.3 | |
| Ieri h: 22:35 | Coperto | 21 | 20 | 94 | 1014 | 14 | S/SE 7.4 | |
| Ieri h: 22:15 | Coperto | 21 | 20 | 94 | 1013 | 14 | E/SE 9.3 | |
| Ieri h: 21:50 | Coperto | 22 | 20 | 88 | 1014 | 10 | E/SE 7.4 | |
| Ieri h: 20:50 | Coperto | 22 | 20 | 88 | 1013 | 10 | E/SE 9.3 | |



